Wind_Speed
18 19 21 22 23 24 24 24 23 22 21 21 21 22 23 23 23 22 21 20 20 20 19 18 18 17 17 17 16 16 15 15 15 15 15 15 14 14 14 14 14 14 13 12 12 11 10 10 10 10 10 11 11 11 11 11 11 11 11 11 11 12 12 11 11 11 12 13 15 15 15 13 13 13 12 11 11 11 11 10 9 10 11 11 11
19 21 21 22 22 23 24 24 23 21 21 21 22 23 23 22 22 22 21 20 20 20 18 18 18 17 16 16 16 15 15 15 14 14 14 14 14 13 13 14 13 13 13 12 11 11 10 10 10 10 10 10 11 11 11 11 11 12 11 11 11 11 12 12 12 12 13 14 15 15 14 13 13 12 12 11 10 10 11 9 7 9 11 11 11
21 21 22 23 22 23 23 23 22 21 21 21 22 24 23 22 22 21 21 21 21 19 18 17 17 16 16 15 15 15 15 14 14 14 14 13 13 13 13 13 13 12 12 11 11 10 10 10 11 10 9 10 10 10 10 11 11 12 11 11 11 11 12 12 11 12 13 13 14 15 14 13 12 12 12 11 11 10 10 9 8 10 12 12 12
21 21 22 24 22 22 22 22 23 21 21 22 23 24 22 22 22 21 21 21 19 18 18 17 16 16 15 15 15 15 14 14 14 14 13 13 13 13 12 12 12 11 11 10 10 10 10 10 11 10 10 9 10 9 9 10 10 11 11 11 11 10 11 11 11 11 13 13 13 13 11 12 12 12 11 11 11 10 10 11 10 11 12 12 12
22 21 22 23 22 23 23 23 23 22 22 22 23 23 22 22 22 21 21 20 19 18 17 17 16 15 15 15 15 14 14 13 13 13 13 13 12 12 12 12 11 11 10 10 10 10 10 10 10 10 10 9 9 8 8 9 10 10 11 11 10 10 10 10 10 10 12 12 12 11 9 11 12 11 11 10 10 10 11 11 12 11 12 11 12
21 20 20 22 21 22 25 25 24 23 22 22 22 22 22 21 21 21 20 19 18 18 17 16 15 15 14 14 14 14 13 13 13 13 13 12 12 12 12 11 11 10 10 10 10 10 10 10 10 10 10 9 8 8 8 8 9 9 10 10 10 10 9 8 9 9 11 10 10 10 9 9 11 11 10 9 10 10 11 11 11 11 11 11 12
19 20 19 20 20 22 25 26 25 23 22 21 22 22 21 21 21 20 19 19 18 17 16 15 15 14 14 14 14 13 13 13 12 12 12 12 11 11 11 10 10 10 9 10 9 9 10 10 10 9 9 9 9 8 8 8 8 8 9 9 9 9 8 8 8 8 10 8 7 8 9 8 9 10 10 10 10 9 10 11 11 11 11 10 11
19 18 18 18 19 23 25 26 26 24 22 21 22 21 21 21 20 20 19 19 18 17 16 15 14 14 13 13 13 13 13 12 12 11 11 11 11 10 10 10 9 9 9 9 9 9 9 9 9 9 9 9 10 9 8 8 8 8 8 8 8 8 8 9 8 8 9 7 6 7 8 8 9 10 10 10 10 9 10 10 10 10 10 10 10
19 17 18 17 20 23 25 26 26 25 22 21 23 21 21 21 20 19 19 18 17 16 15 15 14 14 13 13 13 13 12 11 11 11 11 10 10 10 10 9 9 8 8 8 8 8 8 8 8 9 9 9 9 9 9 8 8 8 7 8 8 8 8 8 9 9 8 8 7 7 7 8 9 10 10 10 9 9 9 9 9 9 10 10 9
19 18 17 17 22 25 25 26 26 24 22 22 23 22 22 21 19 19 19 18 16 16 15 14 14 13 13 13 13 12 11 11 11 11 10 10 10 10 10 9 9 8 8 8 8 8 8 8 8 9 9 9 9 9 9 8 8 8 7 8 8 7 7 9 9 8 7 8 7 7 8 8 9 10 10 10 9 8 7 7 8 8 9 9 9
20 18 18 19 23 25 25 25 24 24 22 24 23 22 21 19 19 19 18 17 16 15 15 14 13 13 13 13 12 12 11 11 11 10 10 10 10 10 10 9 9 9 8 8 8 8 8 7 8 8 8 9 9 9 8 8 8 8 8 8 8 7 8 10 8 6 7 8 7 8 9 8 7 9 9 10 8 7 7 8 8 8 8 8 9
20 19 18 21 23 22 23 23 23 23 23 23 22 21 20 19 19 18 18 16 15 15 14 14 13 13 12 12 12 11 11 10 10 10 10 10 10 10 9 9 9 9 9 9 9 8 8 7 7 7 8 8 8 8 8 8 8 8 8 8 8 7 7 9 7 5 7 7 7 7 8 8 7 7 8 8 8 7 8 9 8 8 8 7 8
21 20 20 22 22 21 21 22 22 21 22 22 21 20 19 19 18 18 17 16 15 15 14 13 12 12 12 11 11 10 10 10 10 10 10 10 10 10 9 9 9 9 9 9 9 9 9 8 8 7 7 8 8 8 8 8 8 8 8 7 7 7 7 8 7 6 6 6 6 7 7 7 7 7 8 8 7 7 9 10 8 9 8 8 7
22 21 22 22 21 21 20 21 21 21 21 21 20 20 19 19 18 17 16 15 15 14 14 13 12 12 11 11 10 10 9 9 10 9 9 10 9 9 9 9 9 9 9 9 9 9 9 9 9 8 7 7 8 8 8 8 8 8 7 7 6 7 7 7 6 5 6 6 6 7 7 6 6 7 7 8 7 7 8 9 8 9 9 8 7
22 22 23 22 23 22 21 20 20 20 21 20 20 19 19 18 17 17 16 15 14 14 13 12 12 11 10 10 9 9 9 9 9 9 10 10 10 9 9 9 8 8 8 8 8 8 9 9 9 8 8 7 8 8 8 8 8 8 7 7 6 7 8 5 4 5 5 5 5 6 6 6 6 6 6 7 7 7 7 9 8 8 8 8 8
21 23 23 23 24 23 22 21 20 20 20 20 20 19 18 18 17 16 15 15 14 14 13 12 11 10 10 9 9 9 8 8 8 9 9 9 9 9 8 8 8 8 7 7 7 7 8 8 8 8 8 8 8 8 8 9 8 7 7 7 7 7 9 6 3 4 4 4 5 4 6 7 6 5 6 7 7 7 7 8 8 7 7 8 8
21 22 22 23 24 23 22 22 21 20 20 20 19 18 18 17 17 16 15 14 14 13 12 11 11 10 9 9 8 8 8 8 7 8 8 8 8 8 8 8 8 8 7 7 7 7 8 8 8 8 8 8 7 7 8 8 8 7 7 7 7 6 8 7 4 4 4 4 4 4 6 7 6 5 6 7 7 7 8 8 8 6 6 7 8
21 21 21 23 23 22 21 22 21 20 20 19 19 18 17 17 16 15 14 14 13 12 11 10 10 9 9 8 8 7 7 7 7 7 7 6 7 6 7 8 8 8 7 7 7 8 8 9 9 9 9 8 7 8 8 8 8 7 7 7 7 7 8 7 4 4 4 4 4 3 5 6 6 6 6 7 8 7 8 9 8 7 6 7 7
21 21 21 22 21 21 21 22 21 20 20 19 18 18 17 16 15 14 13 13 12 11 10 10 9 8 8 8 7 7 7 6 6 5 5 5 6 6 5 7 7 7 7 6 6 7 7 8 8 8 8 7 7 8 8 8 8 7 7 7 8 8 8 6 4 3 3 3 4 4 4 5 6 7 6 7 8 7 7 8 8 7 6 6 6
20 20 20 21 20 20 21 21 21 20 19 17 17 17 16 16 15 14 13 12 12 11 10 9 9 8 7 7 6 6 6 5 5 4 4 4 5 4 4 5 5 5 5 5 5 6 6 6 7 7 7 6 6 7 8 8 7 7 7 7 9 9 6 5 4 3 3 3 4 4 3 5 6 6 6 5 6 7 6 7 7 7 6 6 6
19 20 20 20 20 20 20 20 20 20 18 17 16 16 16 16 14 13 12 12 11 11 10 9 8 7 7 6 6 6 5 5 5 4 3 3 3 2 3 4 4 4 4 4 4 4 4 5 5 5 6 6 6 6 7 8 8 8 7 7 8 6 5 4 4 3 3 3 3 3 3 4 4 5 6 4 5 6 5 5 5 6 6 6 6
20 20 20 20 20 20 20 20 20 20 18 17 16 16 16 15 13 13 12 11 11 10 10 9 8 8 7 6 5 5 5 4 4 4 3 3 1 1 2 2 3 2 2 3 3 3 3 4 4 4 5 5 6 4 4 6 7 8 8 8 7 4 4 4 4 4 4 3 1 2 3 4 3 4 6 5 4 5 4 4 5 5 5 6 6
20 20 21 21 20 20 20 19 20 20 19 16 16 15 16 15 13 13 12 11 11 10 10 9 8 8 7 6 5 4 4 4 4 4 3 3 0 0 1 1 1 1 2 3 3 3 3 3 4 4 4 4 4 3 3 4 6 7 7 6 5 5 5 4 4 4 4 3 1 1 2 4 3 3 5 5 5 5 5 4 4 4 5 5 5
21 20 20 21 20 20 20 20 19 20 19 16 15 15 16 15 13 13 12 12 12 11 10 10 9 8 7 6 5 5 4 4 4 3 2 2 0 1 1 1 1 1 3 3 2 2 3 4 5 4 4 3 3 3 4 4 4 5 5 5 5 5 4 4 3 3 3 3 2 1 2 3 3 3 4 4 4 4 5 4 4 3 5 5 5
22 20 20 21 21 21 20 20 19 20 19 16 16 15 15 15 13 13 12 12 12 11 11 10 9 8 8 6 5 5 4 4 3 3 2 2 1 1 1 1 1 1 2 2 1 2 2 3 4 3 3 3 3 3 4 4 4 5 5 5 5 4 4 4 4 3 3 3 2 2 3 3 3 3 3 4 3 4 5 5 5 4 4 5 5
22 20 20 21 21 21 20 20 20 20 19 17 16 15 15 14 13 13 12 11 11 11 10 10 9 9 8 6 6 5 5 4 4 3 3 2 2 2 1 2 2 2 2 1 1 1 1 2 2 2 2 2 3 3 3 3 4 5 5 5 4 4 4 4 4 4 4 3 1 2 3 3 3 3 2 3 3 4 5 5 6 5 5 4 5
23 22 22 21 21 22 21 21 20 20 19 17 16 15 15 14 13 13 12 11 11 11 10 9 9 9 8 7 6 6 5 5 4 4 3 3 2 2 1 1 1 1 2 1 1 0 0 1 1 2 2 3 4 3 2 2 2 4 5 5 4 4 4 4 4 4 4 4 2 2 2 1 2 4 4 3 2 3 4 6 6 6 6 5 5
24 24 24 22 22 22 22 22 21 21 20 18 16 15 15 14 13 12 12 11 11 11 10 9 9 9 8 7 6 5 5 5 5 4 4 3 2 2 1 1 1 1 1 0 0 1 1 1 3 4 3 3 5 4 2 1 1 3 4 5 5 4 3 3 4 3 3 4 3 3 3 2 1 3 4 4 4 4 4 6 6 6 6 6 6
25 25 24 23 23 23 23 22 21 21 20 19 17 15 15 14 13 12 12 12 11 10 9 9 8 8 8 7 6 5 5 5 5 4 4 3 3 2 2 1 1 1 0 1 0 1 2 3 4 3 3 3 4 4 2 1 1 2 3 4 4 4 4 2 3 3 3 3 4 3 3 3 2 1 3 4 5 5 5 5 6 5 5 6 6
25 25 24 23 23 23 23 22 22 21 20 19 17 15 14 14 13 12 12 12 11 10 9 9 8 8 8 7 7 5 5 4 4 4 3 3 3 3 2 2 1 1 1 1 0 1 2 2 2 1 2 2 3 4 4 2 1 2 3 3 4 4 4 2 1 1 2 2 3 3 2 4 4 1 1 2 4 5 5 5 6 5 5 6 6
25 25 24 23 24 24 23 22 22 21 20 18 17 16 14 14 13 12 12 12 11 10 9 9 8 8 8 7 7 6 5 4 4 4 4 3 3 3 2 2 2 1 1 1 0 1 2 3 3 2 2 3 3 4 4 3 2 2 3 3 4 4 4 2 0 1 2 2 3 2 2 3 4 4 2 0 1 4 5 5 6 5 5 6 6
25 26 24 22 24 25 24 23 22 21 20 18 17 16 15 14 13 12 12 11 11 10 9 9 8 8 8 8 8 8 7 5 5 5 4 4 3 3 3 2 2 1 1 1 1 1 1 3 4 4 3 3 3 3 3 3 2 2 2 2 3 4 4 2 1 2 2 2 2 3 3 2 3 5 4 3 1 1 3 4 5 5 6 7 7
24 25 24 22 23 24 24 24 23 21 20 19 17 16 15 13 13 13 12 11 11 10 10 9 9 8 8 9 9 9 8 6 6 5 5 4 4 3 3 3 3 2 2 2 2 2 2 3 2 3 3 3 4 4 4 3 1 1 1 2 3 4 4 1 1 2 1 1 1 3 3 3 4 5 4 4 3 2 2 3 5 6 7 7 7
22 23 24 23 23 23 22 23 23 22 19 19 17 16 15 14 13 13 12 12 11 11 10 9 9 9 9 9 10 9 9 7 6 6 5 5 5 4 4 4 3 3 3 3 3 2 3 3 2 2 4 3 4 5 5 3 2 1 1 2 3 4 3 2 1 1 1 0 2 3 2 2 5 5 2 3 4 3 3 2 3 4 5 6 7
21 23 24 24 23 22 22 21 22 22 20 19 18 16 15 14 14 13 13 12 11 11 11 10 10 10 9 10 11 10 9 9 7 6 6 6 5 5 5 4 3 3 3 3 3 3 3 4 3 3 4 4 4 5 4 3 2 1 1 2 3 3 3 3 1 0 1 1 3 3 3 2 4 4 1 2 3 3 3 1 2 2 4 5 6
21 22 24 24 23 22 22 21 22 23 22 21 19 17 15 15 14 13 13 13 12 12 11 11 11 10 10 10 11 11 10 9 8 7 7 7 6 5 5 4 3 4 4 3 3 4 3 4 4 4 4 4 5 4 3 4 3 1 1 1 2 2 2 2 1 1 2 1 3 4 4 3 3 3 2 1 2 2 3 2 0 0 2 2 4
21 22 24 24 24 23 23 22 22 24 23 22 21 19 17 16 15 14 13 13 13 13 12 11 11 11 11 10 11 11 10 10 9 8 8 7 7 6 5 4 4 4 4 4 4 4 4 4 4 4 4 4 4 3 3 3 2 1 1 1 2 1 2 2 1 1 1 1 3 3 4 4 4 4 3 2 1 1 3 3 1 1 1 1 2
22 22 24 24 24 23 23 22 21 23 24 22 22 20 18 17 16 15 14 14 14 13 12 12 12 11 11 11 11 11 11 10 10 9 8 8 7 7 6 4 4 4 4 5 5 4 4 4 4 3 3 4 4 3 3 2 2 1 1 1 2 1 1 1 0 1 1 2 3 3 4 4 4 4 3 2 2 2 3 3 3 2 1 0 1
23 22 23 24 24 23 22 22 21 22 23 22 22 21 19 17 16 16 16 16 15 14 13 13 12 12 12 11 12 12 11 10 10 10 9 8 8 8 7 6 5 5 5 6 5 5 4 4 4 3 3 4 4 3 2 1 1 1 0 2 3 1 0 1 0 1 1 3 4 4 4 5 4 5 4 3 3 3 3 2 2 1 2 2 1
24 23 24 24 24 23 22 22 22 21 22 22 22 21 20 19 18 17 17 17 17 15 14 14 13 13 12 12 12 12 11 11 10 10 10 9 8 8 7 7 7 6 6 6 6 5 5 5 4 3 3 4 3 2 2 0 1 1 1 1 3 2 2 1 2 3 3 4 4 3 4 5 5 5 5 4 4 4 4 3 3 2 2 2 1
24 24 25 25 25 25 23 23 23 22 23 23 23 23 22 21 20 19 18 17 17 16 15 14 13 13 13 12 12 12 11 11 11 10 10 10 9 8 7 7 7 7 7 7 6 5 6 5 4 3 4 4 3 2 1 1 2 2 1 2 3 3 3 2 3 4 5 5 5 3 3 4 4 4 5 5 4 4 5 4 4 3 3 3 2
25 26 26 26 26 26 25 25 24 24 24 24 24 23 22 21 19 18 17 16 16 16 15 14 14 13 13 13 13 12 12 12 11 11 11 10 10 9 8 8 8 8 8 7 7 7 7 6 5 4 4 3 2 2 2 2 2 2 1 2 3 4 3 3 5 5 6 5 5 5 3 3 4 4 4 5 5 5 5 5 4 4 4 3 3
26 26 27 27 26 27 26 25 25 25 25 25 24 23 22 20 18 17 16 15 15 15 14 13 13 13 13 14 14 13 13 12 12 12 12 11 10 10 9 9 9 9 8 8 8 8 8 7 5 4 3 3 2 1 2 3 2 1 1 1 2 3 3 4 5 5 6 5 5 5 4 3 4 4 2 4 5 5 5 5 5 5 4 4 3
26 26 27 27 26 27 27 26 26 26 26 26 25 23 21 20 18 15 15 14 12 13 13 13 13 14 14 14 14 15 15 14 13 13 13 12 11 10 10 9 9 9 9 9 8 9 9 7 5 4 4 3 2 2 3 3 3 2 2 1 0 2 3 5 6 5 5 6 5 5 5 3 4 4 2 3 5 5 5 4 4 4 4 4 3
26 27 27 27 26 27 28 27 26 26 26 26 25 22 20 19 18 15 14 13 12 13 14 14 15 15 15 15 14 15 15 15 14 14 14 13 12 11 11 10 9 9 10 10 9 8 8 7 6 4 5 4 2 2 3 3 4 4 3 1 0 1 1 4 6 5 5 6 6 5 5 4 4 4 2 3 4 3 4 4 4 4 4 4 3
27 27 27 27 26 26 27 27 26 25 25 25 25 23 21 21 19 18 17 16 16 16 16 16 16 16 16 16 15 15 16 16 15 16 15 14 13 12 12 11 10 10 10 10 9 8 8 7 6 5 5 4 3 2 3 4 5 6 6 4 2 1 2 3 3 3 4 4 5 6 6 5 5 5 4 3 4 3 3 3 3 3 3 3 3
27 26 26 27 27 26 27 27 26 24 24 25 27 25 22 22 22 21 20 19 18 17 17 17 16 16 16 16 15 15 16 17 16 17 16 16 15 13 13 12 12 11 11 10 9 9 7 6 5 5 4 4 3 3 4 6 6 7 7 6 4 1 1 1 1 3 4 4 4 6 6 6 6 5 5 5 5 5 3 2 2 3 2 3 3
27 26 26 27 28 27 27 27 26 24 24 25 28 27 24 23 23 22 21 20 18 16 16 17 16 15 15 16 16 15 16 17 17 17 17 17 16 15 14 13 12 12 11 10 10 9 7 6 5 5 5 5 5 5 6 6 6 7 7 7 6 4 3 3 2 1 2 3 4 6 6 7 7 7 6 6 5 6 5 4 3 2 2 3 3
27 27 27 27 27 27 26 27 26 25 24 25 27 27 26 24 23 22 21 20 19 16 15 16 16 15 15 16 16 15 15 16 18 18 17 17 17 16 15 15 14 13 12 11 10 9 8 7 7 6 6 5 6 6 7 6 5 6 7 7 6 6 5 5 3 3 3 2 3 5 6 6 6 6 6 6 5 5 6 6 4 3 3 3 3
28 28 27 26 26 27 27 27 27 26 25 26 27 27 26 24 23 23 22 20 19 18 16 16 17 17 17 17 17 16 16 16 17 18 18 18 17 17 16 15 15 14 13 12 11 10 9 8 8 7 7 6 7 7 7 7 6 5 6 7 7 6 5 5 5 6 5 3 3 3 5 7 7 7 7 8 7 6 6 6 6 5 4 3 3
27 27 27 27 27 27 28 29 28 26 25 26 28 27 26 24 23 23 23 22 20 19 18 18 18 18 18 18 17 16 16 16 17 18 19 19 18 18 17 16 15 14 13 12 12 10 10 9 8 7 8 8 8 8 8 8 7 6 7 7 8 7 6 6 6 6 5 4 4 4 4 4 4 4 6 7 8 8 7 6 7 6 5 4 4
Wind_Direction
126 130 131 136 140 142 143 141 136 133 132 132 133 132 130 128 127 125 124 123 122 121 119 117 113 108 106 105 103 99 97 94 91 89 87 86 86 88 90 91 90 89 89 89 90 90 90 90 88 87 87 87 85 85 86 86 83 82 82 80 81 80 81 86 92 98 103 105 107 104 100 100 100 100 101 102 104 106 103 96 99 111 114 111 112
133 133 134 137 138 140 141 140 136 133 134 135 136 134 132 128 125 124 124 123 123 122 120 117 111 108 108 107 103 100 98 95 93 90 88 87 86 85 84 84 84 84 86 86 85 86 87 86 86 85 86 87 86 86 87 87 85 82 81 79 79 79 80 85 91 99 104 107 109 104 101 103 102 101 102 103 105 107 104 94 97 111 109 107 113
134 133 135 138 139 139 139 138 136 137 139 138 137 135 132 127 125 125 125 125 124 123 120 115 111 111 110 107 103 100 98 96 93 90 88 86 84 82 79 79 79 80 80 82 82 83 84 83 81 79 80 84 85 84 86 87 85 84 81 79 76 76 77 81 89 100 106 107 105 100 101 102 100 101 101 102 103 103 102 100 103 108 106 106 111
134 134 139 139 139 140 141 141 141 142 141 138 136 134 132 128 125 126 128 127 126 124 120 115 113 113 110 106 102 100 98 95 93 90 89 86 84 83 82 81 81 80 78 80 79 78 79 79 76 73 71 74 82 82 84 85 85 84 83 81 77 76 76 79 86 95 104 106 102 98 102 102 98 98 99 100 100 98 99 104 105 99 98 103 109
134 137 143 142 141 144 148 147 145 143 139 137 136 133 131 127 126 129 130 128 127 124 120 118 117 114 109 106 102 100 97 95 93 91 89 87 86 84 85 83 82 80 77 76 75 75 72 71 70 67 65 65 75 82 83 85 86 86 84 82 78 76 75 79 82 91 104 106 101 100 104 106 103 99 99 101 100 99 99 102 104 99 97 101 109
136 137 143 144 144 147 148 146 144 142 137 136 135 132 129 127 128 131 132 130 129 126 123 122 118 114 109 107 103 100 98 95 92 90 90 88 86 84 83 82 80 78 76 74 72 71 69 66 65 64 63 63 69 76 79 83 88 88 87 83 79 76 74 76 76 89 101 95 92 100 104 104 105 104 105 104 102 103 103 103 104 106 104 103 109
135 137 141 143 146 150 151 147 146 141 134 135 133 130 128 129 133 135 135 133 131 129 127 124 119 115 111 108 104 101 98 94 92 91 90 88 85 83 82 81 79 77 75 74 71 70 69 67 65 66 65 64 69 75 79 82 86 89 90 87 81 77 72 70 70 86 90 82 88 101 103 102 104 106 108 105 104 106 106 106 106 109 109 108 111
135 137 139 141 147 154 155 149 146 140 134 136 133 130 131 134 137 138 137 135 134 132 129 126 120 117 113 108 103 100 97 93 91 89 87 85 84 82 80 79 77 76 74 73 72 72 72 71 70 70 68 66 71 77 81 80 80 83 89 89 85 78 72 71 74 82 82 82 93 94 97 104 106 106 105 104 105 108 106 106 107 108 112 113 113
135 137 139 139 144 150 150 147 144 139 135 136 134 134 137 139 140 140 138 137 135 134 131 127 123 119 113 107 103 99 95 91 88 86 84 83 82 80 78 77 75 74 74 74 73 74 75 75 74 72 71 70 72 75 79 78 78 80 83 87 88 85 78 76 80 81 80 85 92 94 104 104 100 105 104 101 102 104 109 109 106 109 112 113 116
137 138 138 137 142 144 144 145 143 138 136 138 137 138 142 142 142 141 139 139 137 135 132 128 126 121 113 108 104 98 94 90 86 83 82 82 80 78 77 76 76 74 73 74 74 76 77 76 74 72 73 73 73 73 76 76 78 78 80 85 88 91 83 77 79 81 80 86 91 100 114 105 99 111 109 101 97 93 104 115 116 114 111 114 120
139 140 138 139 142 143 144 145 142 138 139 140 140 143 144 144 143 142 141 140 138 136 133 131 130 123 116 111 104 100 96 90 85 84 81 79 79 78 77 76 75 74 72 72 73 75 75 74 72 72 73 71 70 71 72 73 76 77 80 84 86 91 88 81 79 82 81 83 90 101 111 102 98 115 114 106 100 92 96 108 115 111 108 116 120
141 141 139 140 143 142 144 143 140 139 140 141 144 147 148 146 145 144 143 141 140 138 135 136 134 126 121 114 107 103 98 92 87 84 80 78 77 78 77 76 74 72 71 70 71 72 71 72 71 69 68 65 66 69 68 70 76 77 78 79 81 88 94 88 83 85 85 82 88 98 104 97 100 117 118 112 105 100 98 98 103 106 109 114 115
143 142 140 141 144 144 144 142 141 141 142 145 148 151 150 148 147 146 145 143 142 141 139 139 135 130 125 118 112 106 100 95 88 85 82 79 76 75 75 76 76 73 71 70 70 68 66 64 65 67 65 64 63 65 64 65 75 79 78 79 81 89 94 89 84 84 83 82 86 91 97 101 120 130 123 113 107 106 102 96 95 98 101 103 108
145 144 142 143 147 147 147 145 144 144 147 151 152 152 151 151 151 149 148 145 145 144 142 139 137 133 129 124 117 110 105 98 91 88 83 79 77 75 76 76 75 74 72 72 71 67 65 64 63 65 65 66 64 64 64 63 71 77 78 78 85 93 91 83 78 81 80 80 86 93 103 117 131 136 127 117 114 113 108 102 96 94 96 97 98
147 146 145 146 149 150 150 148 148 149 151 153 153 154 153 154 154 152 150 149 148 146 143 140 139 135 132 130 123 116 109 103 96 90 85 81 79 76 75 75 72 71 72 71 70 68 66 66 65 65 67 67 65 65 64 63 67 72 71 71 80 92 94 83 70 77 79 80 84 92 104 117 122 126 122 117 120 121 117 109 101 98 97 95 90
149 148 147 148 151 152 153 153 152 152 153 155 155 155 155 156 156 156 154 153 151 148 146 143 141 137 135 135 130 123 114 108 101 94 88 83 80 76 72 70 70 67 68 67 67 69 66 68 68 68 69 68 67 65 64 63 65 68 67 69 77 89 97 90 71 75 74 78 84 90 99 110 115 121 121 117 126 129 124 116 107 107 104 100 96
152 151 150 151 153 154 155 155 156 155 156 157 157 157 157 158 159 159 157 156 155 151 149 148 143 140 139 136 134 129 120 112 105 97 88 86 83 79 74 66 64 62 61 60 63 69 68 69 69 69 70 70 68 66 65 64 64 69 68 71 79 94 102 91 71 74 70 71 78 85 101 108 105 113 129 127 132 136 130 125 118 118 111 104 103
155 154 153 154 155 156 157 157 158 159 159 159 159 160 161 162 163 162 161 159 156 155 154 152 147 146 143 137 136 132 125 117 109 102 91 88 78 70 74 68 61 60 58 55 60 68 71 70 70 69 69 70 67 65 67 68 67 69 74 75 79 98 106 92 81 77 68 67 74 80 93 98 93 99 126 130 133 142 140 137 130 128 120 109 106
160 158 157 157 158 160 159 159 160 162 160 160 162 164 165 166 167 165 165 162 159 160 160 159 155 152 148 140 137 132 129 124 115 107 98 91 77 64 69 73 65 63 61 56 59 62 66 67 66 66 65 67 64 64 70 74 74 72 77 76 77 89 94 85 84 81 72 68 69 79 81 85 91 100 119 126 128 137 138 136 135 136 129 119 114
164 163 162 161 163 163 162 162 163 165 162 162 164 165 169 169 169 167 166 166 164 165 165 166 163 159 154 147 141 131 132 130 119 112 106 98 93 85 76 76 69 70 67 63 66 62 60 59 58 61 60 62 58 58 67 73 76 76 76 74 75 77 76 81 90 87 79 67 64 75 77 83 93 104 118 126 128 134 135 135 141 145 138 129 120
168 169 168 166 167 166 165 165 166 168 166 165 165 166 172 172 171 171 170 172 172 171 170 169 167 166 163 157 147 141 146 142 125 122 115 87 84 96 87 78 76 78 74 74 79 68 58 53 49 49 46 51 55 48 55 66 71 78 81 75 73 73 77 87 90 90 83 76 76 66 67 91 98 113 123 125 125 132 140 144 148 151 145 135 127
171 173 172 171 172 170 169 168 168 170 169 168 167 169 174 174 175 176 175 178 178 177 174 172 175 173 172 170 161 159 156 149 137 132 129 108 81 99 105 91 89 89 92 91 87 72 55 50 39 36 39 50 64 48 38 60 69 73 75 71 68 75 88 93 93 90 86 90 92 39 63 104 104 112 129 138 134 132 141 148 153 159 158 145 135
173 175 174 175 176 174 173 172 171 171 171 170 170 172 175 177 180 180 180 182 181 182 181 180 183 180 179 180 173 170 158 157 162 154 149 142 112 24 139 97 76 77 98 80 61 62 43 37 36 43 51 50 68 69 43 55 68 65 64 67 65 67 78 93 101 91 88 97 103 41 110 126 120 119 140 157 156 144 140 148 159 165 171 159 145
176 177 175 178 179 178 176 175 173 173 174 173 174 176 176 180 183 184 184 184 184 185 189 188 188 186 184 184 180 174 167 171 177 168 157 152 98 54 94 63 55 38 88 78 48 44 39 35 34 50 55 35 46 62 59 58 68 70 66 68 62 61 67 79 94 97 101 102 93 129 141 137 151 151 153 165 167 161 154 158 171 173 182 176 163
177 178 176 179 181 180 178 177 176 176 178 177 178 180 179 184 185 187 187 186 187 188 191 190 191 192 189 189 184 179 177 177 175 178 171 167 159 132 120 102 110 121 109 109 89 53 55 53 34 44 35 28 47 45 55 53 56 67 67 63 55 52 56 66 78 88 107 114 95 112 132 145 178 172 162 172 176 183 178 173 176 176 186 186 176
178 180 179 180 181 182 180 179 178 178 181 181 181 182 182 186 187 187 188 188 188 188 190 190 192 193 192 193 188 184 184 183 179 185 186 181 177 155 152 142 137 141 142 141 115 76 51 64 52 51 8 24 52 40 44 39 41 52 59 60 50 49 47 55 71 77 98 121 97 87 120 142 187 190 190 192 195 196 194 193 187 177 186 196 187
179 182 182 181 182 183 182 181 180 179 183 184 182 182 184 187 187 186 188 190 188 189 191 190 191 192 194 194 192 190 186 187 182 187 195 190 192 177 172 164 157 148 147 159 132 162 19 68 56 34 8 11 28 36 44 21 30 39 50 55 43 44 47 53 67 72 86 102 82 59 97 115 177 203 211 206 229 223 208 209 201 187 187 194 198
180 182 184 182 182 184 184 183 181 181 183 184 182 182 186 189 188 187 190 192 190 193 194 191 191 192 196 196 196 196 190 189 183 187 195 194 199 195 206 200 179 159 135 191 224 285 300 39 37 31 23 350 357 25 37 358 36 34 44 55 45 42 47 51 61 69 75 91 83 52 59 65 115 210 220 211 226 234 223 217 214 206 197 197 206
182 182 184 184 184 184 184 185 183 183 184 184 184 184 187 190 190 189 191 193 194 197 197 193 192 193 198 200 198 200 197 192 184 187 193 195 207 209 217 215 198 190 176 220 198 304 316 34 44 41 35 338 348 17 359 307 22 48 53 54 46 40 45 47 52 62 58 83 87 50 50 63 65 194 216 217 223 227 225 225 227 219 210 210 210
183 182 183 185 185 183 185 186 185 184 185 186 186 186 188 192 192 192 192 193 198 200 197 196 196 195 198 199 199 204 205 196 188 191 196 206 215 220 222 213 215 212 221 259 24 315 323 10 15 31 31 348 349 359 339 319 350 75 89 63 49 39 39 32 34 66 50 82 93 53 46 69 70 87 190 214 225 226 223 225 233 225 221 224 216
183 183 183 183 185 185 186 186 186 185 186 188 189 190 191 192 194 194 194 196 199 200 199 200 199 199 197 194 199 205 207 201 195 193 201 214 221 227 228 221 223 214 235 272 308 312 326 326 317 322 339 338 344 344 336 317 330 85 98 63 48 39 33 15 11 89 65 70 88 84 65 70 78 73 61 72 235 235 228 223 228 224 224 233 230
183 184 182 180 182 185 187 187 186 187 188 190 190 193 194 193 194 195 198 198 198 200 201 203 201 201 197 195 201 205 206 203 200 201 207 214 217 228 232 232 239 238 249 271 290 299 308 291 298 313 318 332 335 333 329 306 303 81 83 53 48 42 32 1 352 53 67 66 86 105 96 102 98 74 57 57 59 218 225 228 227 229 230 234 242
183 183 180 179 181 183 186 187 188 189 191 193 192 194 194 195 196 196 198 198 198 200 202 204 203 201 199 199 204 206 206 203 204 205 211 216 215 226 232 235 243 250 254 265 284 285 279 273 294 320 319 330 332 329 323 311 312 28 25 34 44 41 32 354 352 26 35 93 114 110 104 135 122 81 54 62 67 98 145 212 222 229 236 239 247
182 183 182 180 181 181 183 186 189 190 193 195 194 195 196 196 198 197 197 198 200 201 202 205 204 203 202 204 206 209 209 205 206 207 213 220 215 222 229 232 238 245 254 257 266 272 276 282 285 301 303 312 325 322 309 314 326 315 359 21 41 45 31 22 25 18 354 69 120 106 98 119 116 102 71 65 65 68 93 162 214 220 230 238 247
184 184 184 182 182 182 183 184 187 191 193 196 196 196 196 196 198 198 197 199 202 203 204 204 204 205 205 207 207 210 213 211 212 213 217 222 219 220 221 224 229 239 249 239 246 258 267 278 267 274 288 293 314 316 300 306 312 311 2 17 59 60 34 40 41 61 77 135 128 111 95 86 98 104 108 76 73 57 57 92 220 223 221 228 241
186 184 184 183 183 183 183 184 186 191 193 195 196 196 196 198 199 200 199 199 202 205 206 206 204 205 205 208 209 210 216 218 219 220 222 226 225 224 220 218 222 235 241 229 238 246 252 266 263 271 282 289 313 320 299 297 307 324 351 7 81 82 40 49 83 106 77 123 128 116 107 101 93 80 70 79 98 81 49 56 173 219 206 207 232
186 184 183 182 184 182 183 186 187 190 193 194 195 196 196 198 199 201 201 200 204 207 207 208 206 205 205 206 209 211 216 220 222 224 226 231 232 232 228 221 224 234 234 233 241 241 246 258 255 264 274 287 306 314 300 297 311 321 228 162 98 89 44 45 63 89 92 122 118 119 111 105 94 76 71 69 75 99 58 45 42 63 158 190 200
187 185 183 182 183 182 182 185 187 189 192 193 194 195 196 198 200 202 203 204 207 210 208 208 209 207 206 205 207 211 215 221 223 225 228 234 238 240 239 232 233 238 238 241 245 246 253 255 249 250 259 281 293 297 306 314 330 334 208 141 108 89 45 50 70 114 159 143 131 135 114 98 91 81 72 62 48 62 61 37 29 65 99 76 188
190 187 185 183 183 182 182 185 187 188 189 191 193 195 196 198 201 203 205 208 210 213 211 210 210 209 208 207 208 210 214 219 221 224 228 233 236 240 242 241 240 241 244 248 250 250 252 252 251 241 246 285 291 279 296 335 346 349 63 135 127 131 341 357 208 187 170 140 144 150 121 103 95 84 71 67 59 56 67 55 36 70 78 29 336
191 189 187 186 185 184 183 185 187 187 187 190 192 194 197 199 202 204 206 209 210 212 213 213 212 212 210 207 209 211 214 216 218 221 225 228 231 235 239 241 242 245 249 253 254 254 251 253 254 240 250 283 288 266 267 158 124 62 54 157 155 178 212 271 253 199 174 156 155 156 132 114 98 85 70 64 64 61 66 69 59 53 52 39 22
191 189 189 188 188 187 186 186 187 187 187 190 193 195 198 199 201 204 205 205 206 208 210 212 213 213 210 206 208 212 215 216 217 218 219 222 226 230 236 239 242 244 248 254 256 254 252 256 255 248 261 272 268 254 234 164 160 145 142 191 182 196 208 232 243 205 181 173 167 165 144 123 104 92 80 66 66 73 72 69 64 59 61 69 67
191 190 190 190 190 190 191 189 188 189 191 192 193 196 198 199 199 201 202 200 201 203 207 209 211 211 207 206 209 211 213 215 217 215 215 218 223 228 233 237 241 242 244 250 254 255 257 258 254 256 271 270 258 242 187 192 207 174 164 197 183 182 193 222 226 202 189 185 177 176 160 136 114 95 90 87 82 83 81 74 69 68 69 75 86
191 191 191 191 191 193 194 193 191 192 194 194 194 196 197 197 197 198 199 200 200 202 206 207 208 210 207 207 212 213 212 214 215 214 214 218 223 227 232 235 237 237 238 243 248 252 255 255 251 260 279 266 245 200 184 219 236 139 151 227 194 168 164 193 209 199 192 188 188 185 169 154 126 105 97 97 94 90 85 78 73 74 71 67 71
191 191 191 191 192 195 195 194 194 194 194 195 195 195 195 195 196 197 199 203 203 200 202 205 207 209 209 209 212 214 214 214 213 212 214 217 221 225 231 235 234 232 234 237 241 246 252 251 245 253 267 264 246 173 173 209 217 172 173 178 143 204 173 163 177 187 195 193 201 197 172 169 149 130 123 92 96 99 93 84 77 75 73 71 73
192 191 191 192 193 195 195 195 196 195 195 195 193 193 192 191 192 194 197 201 204 200 200 204 205 207 210 209 210 211 212 213 212 213 213 215 219 222 228 232 233 232 233 237 242 247 251 248 243 243 246 259 271 195 163 178 208 215 227 214 160 234 162 144 160 176 203 199 198 199 180 185 172 145 138 104 112 123 102 92 80 75 73 71 76
193 192 191 192 194 195 195 195 196 197 197 195 192 191 190 190 189 191 195 199 203 203 202 204 204 206 210 210 209 209 210 211 212 214 214 214 217 219 224 229 231 233 233 236 240 243 244 242 241 240 239 247 255 231 194 184 200 216 225 240 280 341 91 131 158 159 197 206 196 199 194 200 192 164 169 159 152 158 123 107 96 81 75 78 85
194 192 192 192 193 194 194 195 196 198 198 196 193 192 191 193 194 197 201 203 205 206 205 206 206 207 209 208 208 208 208 211 213 216 217 218 218 219 222 225 229 233 233 234 239 240 239 237 235 236 236 230 212 218 219 192 189 210 217 223 240 265 89 156 184 148 173 196 207 213 203 202 204 188 187 191 180 169 153 137 124 110 95 90 100
192 191 193 192 192 192 192 193 195 197 197 196 196 195 194 195 198 202 206 209 211 209 205 205 207 207 206 205 206 207 208 210 213 217 218 219 221 222 223 224 228 232 234 237 240 241 240 235 230 231 231 222 202 209 221 200 191 204 204 209 213 208 220 229 234 238 201 179 188 211 213 202 205 203 198 207 198 170 168 181 165 150 140 124 125
192 192 193 192 191 190 190 191 193 195 196 195 195 197 197 198 200 203 207 212 213 210 204 202 203 202 202 201 203 207 208 210 213 216 219 220 221 223 225 226 228 231 236 240 240 238 238 234 230 227 223 218 209 211 218 211 210 202 183 197 208 198 212 220 212 229 248 228 182 191 200 202 216 215 205 217 215 184 184 193 187 187 181 162 165
194 194 192 191 190 189 189 190 192 195 196 197 197 199 201 200 201 204 207 209 208 206 203 200 199 198 200 201 202 206 209 212 214 216 219 219 220 222 225 227 229 232 236 238 237 236 234 231 232 228 219 214 212 213 213 207 215 208 179 185 202 202 208 215 213 214 218 232 240 223 197 197 215 212 202 216 218 206 203 198 197 205 205 198 192
195 194 192 191 190 189 190 191 193 195 197 201 202 202 204 204 203 204 207 207 203 202 201 200 198 198 201 202 204 207 210 214 216 216 218 219 219 221 223 226 228 231 233 232 232 233 231 228 228 226 219 214 213 213 211 204 203 206 194 186 195 205 204 211 223 220 215 219 232 250 227 207 226 206 192 211 215 212 212 210 219 225 216 214 213
Height
815 815 816 817 819 818 820 820 821 822 823 825 826 827 828 829 829 830 832 833 833 835 836 837 838 838 839 840 841 841 841 841 841 841 841 842 842 843 843 844 844 844 845 845 846 846 847 847 847 847 847 847 847 847 848 848 848 847 847 847 847 847 847 847 847 847 847 848 848 848 849 850 850 851 851 852 852 852 853 853 853 853 853 852 852
814 816 817 818 820 819 821 821 822 823 825 827 827 828 829 830 831 832 833 834 835 836 838 839 839 840 841 841 842 842 842 842 842 842 843 843 844 844 844 844 845 845 846 846 847 847 848 848 848 848 848 848 848 849 849 849 848 848 848 848 848 849 849 848 848 848 849 849 849 849 850 851 851 852 852 852 853 853 854 854 854 854 853 853 854
813 816 818 819 821 820 821 822 823 825 827 828 828 829 830 832 832 833 834 836 837 838 839 840 841 842 842 843 843 843 843 843 844 844 845 845 845 845 845 845 846 846 847 847 848 848 849 849 849 849 849 849 849 849 849 849 849 849 849 849 849 850 850 849 849 849 849 850 850 850 851 852 852 852 853 853 854 854 854 855 855 855 854 854 855
814 817 819 821 822 822 822 824 825 827 829 829 830 830 831 833 833 835 836 837 838 840 841 841 843 843 844 844 844 845 845 845 845 846 846 847 847 847 847 847 847 848 848 848 849 849 849 850 850 850 850 849 850 850 850 850 850 850 850 850 850 851 851 850 850 850 851 851 851 852 853 853 853 853 854 854 855 855 855 856 856 856 855 856 856
816 818 820 821 823 824 824 826 827 828 829 830 831 832 833 833 834 836 837 839 840 841 842 843 844 844 845 845 845 846 846 846 847 848 848 848 848 848 849 849 849 849 849 849 850 850 850 850 850 850 850 850 850 850 850 850 851 851 851 851 851 852 852 852 851 851 852 853 852 853 854 854 854 855 855 856 856 856 856 857 857 857 857 857 857
817 819 821 821 823 824 826 827 828 829 830 831 832 833 834 834 836 838 839 840 842 843 844 845 845 846 846 846 847 847 847 848 848 849 849 850 850 850 850 850 850 850 850 850 851 851 851 851 851 851 851 851 850 851 851 851 852 852 852 853 853 852 852 852 852 853 853 853 853 853 855 855 856 856 856 857 857 857 857 858 858 858 859 859 859
816 819 821 822 823 824 826 827 828 830 831 832 833 834 834 836 838 839 841 842 843 844 845 846 847 847 847 847 848 848 849 849 849 850 850 851 851 851 851 851 851 851 851 851 852 852 852 852 852 852 852 851 851 852 852 852 852 853 854 854 854 853 853 853 853 853 853 854 854 854 855 856 856 857 857 858 858 858 858 859 859 859 860 860 860
816 819 820 822 823 824 826 828 829 830 832 834 834 835 836 838 840 841 843 843 845 846 847 847 848 848 848 849 849 850 850 850 851 851 852 852 852 852 852 852 852 852 852 852 852 852 853 853 853 853 853 853 853 853 853 853 853 854 854 854 854 854 854 854 854 854 854 854 855 855 856 856 857 858 858 858 859 859 859 860 860 861 861 861 862
818 819 820 823 823 825 827 828 830 831 833 834 835 836 838 840 841 843 844 845 846 847 848 848 849 849 849 850 850 851 851 851 852 852 852 852 853 853 853 853 853 853 853 853 853 853 853 854 854 854 854 854 854 854 854 854 854 855 855 855 855 855 855 855 854 855 855 855 856 856 857 857 858 859 859 859 860 860 860 861 862 862 862 863 863
818 820 822 823 824 826 828 830 831 832 834 835 836 838 839 841 843 844 845 846 847 848 849 849 850 850 851 851 852 852 852 852 852 853 853 853 853 853 854 854 854 854 854 854 854 854 854 854 854 854 854 854 854 854 854 855 855 855 856 856 856 856 855 855 855 856 856 856 857 857 858 858 858 860 860 860 861 861 861 862 863 863 863 863 864
819 821 823 824 826 827 829 831 832 834 835 837 838 839 841 843 844 845 846 847 849 849 850 851 851 851 852 852 853 853 853 854 854 854 854 854 854 854 854 854 855 855 855 855 855 855 854 855 855 855 855 855 855 855 855 855 855 856 856 856 856 856 856 856 856 857 857 857 858 858 859 859 859 861 861 861 862 862 862 863 863 864 864 864 865
820 822 824 826 827 828 830 832 833 835 836 838 839 841 843 844 845 846 847 849 849 850 851 852 852 853 853 854 854 854 855 855 855 855 855 855 855 855 855 855 855 855 855 855 855 855 855 855 855 855 855 856 856 856 856 856 856 856 856 856 856 857 857 857 857 858 857 858 858 859 860 860 861 862 862 862 863 863 863 864 864 864 865 865 866
821 823 825 827 828 830 832 833 834 836 837 839 841 843 844 845 846 847 848 850 851 851 852 853 853 854 854 855 855 855 856 856 856 856 856 856 856 856 856 856 856 856 856 856 856 856 856 856 856 856 856 856 856 856 856 856 857 857 856 857 857 857 857 857 858 858 858 858 859 860 861 861 862 863 863 863 863 864 864 864 865 865 866 866 867
822 823 826 828 829 832 832 834 836 837 839 841 843 844 845 846 847 848 849 850 851 852 853 854 854 855 855 856 856 857 857 857 857 857 857 857 857 857 857 857 857 857 857 857 857 856 857 857 857 857 857 857 857 857 857 857 857 857 857 857 857 857 857 858 858 858 859 859 860 861 861 861 862 863 864 864 864 864 865 865 866 866 867 867 868
822 824 827 829 831 833 834 836 837 839 841 842 844 845 846 847 848 849 850 851 852 853 854 854 855 856 856 857 857 857 858 858 858 858 858 858 858 858 858 858 858 858 858 858 858 858 858 858 858 857 858 857 857 858 857 858 857 858 858 858 858 858 858 858 859 859 859 859 860 861 861 862 863 864 864 865 865 865 866 866 867 868 868 868 868
823 825 827 829 832 834 835 838 839 841 842 844 845 846 847 848 849 850 851 852 853 854 854 855 856 856 857 858 858 858 859 859 859 859 859 859 859 859 859 859 859 859 859 859 859 859 859 858 859 858 858 858 858 858 858 858 858 858 858 858 858 858 858 859 860 860 860 860 860 861 861 862 863 864 864 865 865 866 867 867 868 868 869 869 869
823 825 827 829 832 834 836 838 840 842 843 845 846 847 848 848 849 850 851 853 853 855 855 856 856 857 858 858 859 859 859 860 860 860 860 860 860 860 860 860 860 860 860 860 860 859 860 859 859 859 859 859 859 859 859 859 859 859 859 859 859 859 859 860 861 861 861 861 861 862 861 862 863 864 865 865 866 866 867 868 868 869 869 870 870
823 826 828 830 832 834 837 838 840 842 843 845 846 847 848 849 850 851 852 853 854 855 856 857 857 858 858 859 859 860 860 860 861 861 861 861 861 861 861 861 861 861 860 860 861 860 861 860 860 860 860 860 860 860 860 860 859 859 859 860 860 860 860 861 862 862 862 862 862 863 862 863 864 864 865 866 867 867 868 868 869 870 870 870 870
824 826 828 830 832 834 836 838 840 842 844 845 847 848 848 849 850 851 853 854 855 856 856 857 858 859 859 860 860 860 861 861 861 861 861 862 862 862 861 862 862 861 861 861 861 861 861 861 861 861 861 861 860 860 860 860 860 860 860 860 861 861 861 862 862 863 863 863 863 864 864 864 865 865 866 866 867 868 869 869 869 870 870 870 871
824 826 828 830 832 834 836 838 840 841 843 845 847 847 849 850 851 852 853 854 855 856 857 858 858 859 859 860 861 861 862 862 862 862 862 862 862 862 862 862 862 862 862 862 862 862 862 862 862 861 861 861 861 860 860 860 860 860 861 861 861 861 862 863 863 863 864 864 864 865 865 865 866 866 867 868 868 868 869 870 870 871 871 871 872
825 826 828 830 831 834 835 837 839 841 843 845 847 848 849 850 851 852 853 855 856 857 857 858 859 859 860 860 861 862 862 863 863 863 863 863 862 862 862 862 862 862 862 862 862 862 862 862 862 862 862 861 861 861 860 860 860 861 861 861 861 862 863 863 864 864 864 865 865 865 866 866 867 867 868 869 869 870 870 871 871 872 872 872 873
823 825 827 829 831 833 835 837 839 841 843 845 846 847 849 850 852 853 854 855 856 857 857 858 859 859 860 861 862 862 863 863 863 863 863 863 863 863 863 863 863 863 863 863 863 863 863 863 863 862 862 862 861 861 861 860 861 861 861 861 862 863 863 863 864 864 865 865 865 866 866 866 867 868 868 869 870 871 871 872 872 872 873 873 873
822 824 826 828 831 833 834 836 838 840 842 844 846 847 849 850 852 853 854 855 856 857 858 859 859 860 860 861 862 862 862 863 863 863 863 863 863 863 863 863 863 863 863 863 863 863 863 863 863 863 863 862 861 861 861 861 861 861 861 862 863 863 863 863 864 864 865 865 865 866 866 867 868 868 869 870 870 871 872 872 873 873 873 874 874
821 823 825 828 830 832 834 836 838 840 842 844 846 847 848 850 851 853 854 855 856 857 858 858 859 860 860 861 862 862 862 862 862 863 863 863 863 863 863 863 863 863 863 864 864 863 863 863 863 863 863 862 862 861 862 862 862 862 862 863 863 863 863 863 864 864 865 865 865 866 866 867 867 868 869 870 870 871 872 873 873 873 874 874 875
819 822 824 827 829 831 833 835 837 839 841 843 845 846 848 850 851 852 853 854 855 856 857 858 858 859 860 861 861 861 862 862 863 863 863 864 863 864 863 863 864 863 864 864 864 864 863 864 863 863 863 862 862 862 862 862 862 862 862 863 863 863 863 863 864 864 865 865 865 866 866 867 867 868 869 870 871 871 872 872 873 874 874 875 875
819 821 823 825 828 830 832 834 837 838 841 842 844 846 847 849 850 851 852 853 855 855 857 857 858 859 859 860 861 861 862 862 862 863 863 863 863 864 863 864 864 864 864 864 864 864 863 863 863 863 863 862 862 862 863 862 862 862 862 863 863 863 863 863 863 864 865 865 866 866 866 867 867 868 869 870 871 872 872 873 873 874 874 875 876
817 819 822 825 827 829 831 833 835 837 840 842 843 845 847 848 849 850 851 852 854 855 856 857 857 858 859 859 860 861 861 862 862 862 863 863 863 863 863 863 863 864 864 864 863 863 863 863 863 863 864 863 862 862 863 863 863 862 863 863 863 863 863 863 863 864 865 865 865 865 866 867 867 868 869 870 870 871 872 873 873 874 874 875 876
815 818 820 823 825 828 830 832 834 836 839 841 843 844 846 847 848 849 850 852 853 854 855 856 857 857 858 859 859 860 860 861 862 862 862 862 863 863 863 863 863 864 863 863 863 863 863 863 864 864 865 864 863 862 863 863 863 863 863 863 863 863 863 864 864 864 865 865 865 865 866 867 867 868 869 869 870 871 872 873 873 874 874 875 875
813 816 819 821 824 826 829 831 833 835 838 840 842 843 845 846 847 849 850 851 852 853 854 855 856 857 857 858 858 859 860 860 861 862 862 862 863 863 863 863 863 863 863 863 863 863 863 863 864 864 865 865 863 863 863 863 863 863 863 863 863 863 863 864 864 864 865 865 865 866 866 866 867 867 868 869 869 870 871 872 873 874 874 874 875
812 815 817 820 822 825 828 830 832 834 837 839 841 842 844 845 847 848 849 850 851 852 853 854 855 856 857 857 858 859 859 860 860 861 862 862 862 863 863 863 863 863 863 863 863 864 863 863 863 864 865 865 864 864 863 863 863 863 863 863 863 863 863 863 864 864 864 865 865 865 866 866 866 867 867 868 869 870 871 872 873 873 874 874 874
811 813 816 818 821 824 826 829 831 833 835 838 840 841 843 844 845 847 848 849 850 851 852 853 854 855 856 856 857 858 859 859 860 860 861 861 862 862 863 863 863 863 863 863 863 864 864 864 864 865 865 865 865 864 863 863 863 863 863 863 863 863 863 863 863 863 864 864 865 865 865 866 866 866 867 867 868 869 870 871 872 873 873 873 874
809 811 814 817 819 822 825 827 830 832 834 837 838 840 841 843 844 846 847 848 849 850 851 852 853 854 855 856 856 857 858 859 859 860 860 861 861 862 862 862 863 863 863 863 863 864 864 864 864 864 864 864 864 864 863 863 862 863 863 863 863 863 863 863 863 863 863 864 864 865 865 865 866 865 866 867 867 869 870 871 871 872 872 872 874
807 810 812 815 818 820 823 826 829 831 833 835 837 839 840 842 843 845 846 847 848 849 850 851 852 853 854 855 856 856 857 858 858 859 860 861 861 862 862 862 862 862 863 863 863 863 863 863 863 863 864 864 863 863 863 862 863 863 863 863 863 863 863 863 863 863 863 863 864 865 865 865 865 865 866 866 867 868 869 870 870 871 871 872 873
805 808 811 813 816 819 822 824 827 830 832 834 836 837 839 841 842 843 845 846 847 848 849 850 851 852 853 853 854 855 856 857 858 859 859 860 860 861 861 862 862 862 862 862 862 863 863 862 863 863 863 863 863 862 862 862 863 863 863 863 862 863 863 862 863 863 863 863 863 864 865 864 864 865 865 865 866 867 868 869 869 870 871 871 871
804 806 809 811 815 817 820 822 825 828 830 833 834 836 838 839 841 842 844 845 846 847 848 849 850 851 852 852 853 854 855 856 857 858 859 859 860 860 861 861 861 861 862 862 862 862 862 862 862 863 863 863 863 862 862 862 862 862 862 863 862 863 863 863 863 863 863 862 863 864 864 864 864 865 865 864 865 866 867 868 869 870 870 871 871
802 805 807 810 813 815 818 820 823 826 829 831 833 835 837 838 840 841 843 844 845 846 847 848 849 850 851 851 852 853 854 855 856 857 858 859 859 859 860 860 860 861 861 861 862 862 862 862 862 862 862 862 863 862 862 862 862 862 862 863 863 862 862 863 863 862 862 862 863 864 864 865 864 865 865 865 865 866 867 867 868 869 870 871 871
801 804 806 808 811 814 816 819 821 824 827 830 832 834 836 837 839 840 842 843 844 845 846 847 848 848 849 850 851 852 853 854 855 856 857 858 858 859 859 859 860 860 860 860 861 861 861 861 861 862 861 861 862 862 862 861 861 861 862 862 862 862 862 863 863 863 863 863 863 864 864 864 865 865 865 866 866 866 867 867 868 869 870 870 871
800 802 805 807 810 812 815 817 820 823 825 828 830 832 834 836 837 839 840 841 843 844 844 845 846 847 848 849 850 851 852 853 854 855 856 857 857 858 858 858 859 859 859 860 860 860 860 861 861 861 861 861 861 861 861 861 860 861 861 862 862 862 862 863 863 863 863 863 863 864 864 864 865 865 866 866 866 866 867 867 867 868 870 870 870
798 801 803 806 808 811 813 816 818 820 824 826 829 831 832 835 836 837 839 840 841 842 843 844 844 846 846 848 849 849 851 852 853 854 855 856 856 857 857 857 858 858 859 859 859 859 859 860 860 860 860 860 860 860 860 860 860 860 861 861 862 863 863 863 863 863 863 863 864 864 864 865 865 865 866 866 866 867 867 867 867 868 869 870 870
796 799 802 804 806 809 811 813 816 818 822 824 826 829 830 832 834 835 836 837 839 840 841 842 842 844 845 846 847 848 849 850 852 853 853 854 855 856 856 856 857 857 858 858 858 858 859 859 859 859 859 859 860 860 859 860 860 860 861 861 862 863 863 863 863 862 863 863 864 864 864 865 865 866 866 866 867 867 867 868 868 868 869 869 870
793 796 799 801 803 806 808 810 813 816 819 821 823 825 827 828 830 832 833 834 836 837 838 840 840 842 843 844 845 846 848 849 850 851 852 853 854 855 855 855 856 856 857 857 857 857 858 858 858 858 859 859 859 859 859 859 859 860 860 861 861 862 862 862 862 861 862 863 863 864 864 864 865 866 867 867 867 868 868 868 869 869 869 869 870
789 792 795 798 801 803 806 808 811 813 815 818 820 821 823 825 827 828 830 832 833 835 836 837 838 840 841 842 843 845 846 847 849 850 851 852 853 854 854 854 855 855 855 856 856 856 857 857 857 858 858 858 858 858 858 858 858 858 858 859 859 860 861 862 862 861 861 862 862 863 864 864 865 866 867 867 868 868 869 869 869 869 870 870 870
786 789 792 795 798 800 803 805 808 810 812 815 816 818 820 822 824 826 828 829 830 832 834 835 837 838 839 840 841 843 845 846 847 848 849 850 851 852 853 853 854 854 854 855 855 855 856 856 856 857 857 857 857 857 858 858 858 858 859 859 858 859 861 862 861 861 861 861 862 862 864 865 866 867 867 867 868 869 869 869 869 870 870 870 870
782 785 788 792 794 797 800 802 805 807 809 812 814 816 818 821 823 825 826 828 829 830 832 833 834 836 837 838 839 841 842 844 846 847 848 849 850 851 851 852 852 853 853 854 854 854 855 855 855 856 856 856 856 857 857 858 858 858 859 859 858 859 861 860 860 861 861 861 861 861 863 865 866 867 867 866 868 869 870 870 870 870 870 870 870
778 780 784 787 790 794 796 799 802 804 807 809 811 814 817 819 821 823 825 826 827 828 829 831 832 833 835 836 837 839 840 842 844 845 846 847 848 849 850 850 851 851 852 852 853 853 854 854 854 855 855 855 855 856 857 858 858 858 858 858 859 860 859 856 858 861 860 859 861 861 863 864 865 867 867 867 869 869 869 870 870 870 870 870 870
773 776 780 784 787 790 794 797 799 802 805 806 809 812 814 816 818 820 821 822 824 825 825 827 829 830 832 833 835 836 838 840 841 843 844 845 846 847 848 849 849 850 850 851 851 852 853 853 853 854 854 855 855 855 856 857 858 859 859 858 859 859 857 856 858 861 861 859 860 861 862 864 864 866 867 868 869 869 869 870 870 870 870 870 871
769 773 777 780 784 787 790 794 797 799 802 804 807 809 811 813 815 816 818 819 820 821 822 824 826 828 829 831 833 834 836 837 839 841 842 843 844 845 846 847 848 848 849 849 850 850 851 852 852 853 853 854 855 855 855 856 858 859 859 859 859 859 858 859 858 860 862 862 861 861 861 863 864 865 866 867 867 868 869 870 870 870 870 871 871
765 769 773 776 779 783 787 790 794 797 799 802 804 806 808 810 812 814 815 816 817 819 821 823 824 826 828 829 831 832 834 835 837 838 839 841 842 843 844 845 846 846 847 848 848 849 850 850 851 852 853 853 854 855 855 854 856 857 858 859 859 859 860 860 859 859 859 860 861 860 860 861 862 864 865 865 865 866 868 869 870 870 870 871 871
762 765 768 772 776 779 783 787 790 793 796 799 801 803 805 807 809 811 813 814 816 818 819 821 823 824 825 827 829 830 831 833 834 836 837 838 840 841 842 843 844 844 845 846 847 848 848 849 850 851 852 852 853 855 855 854 855 855 857 859 859 859 859 859 860 860 858 859 860 858 859 861 861 862 863 864 864 865 867 868 869 870 870 870 871
758 761 765 769 773 776 780 783 786 789 793 795 798 800 802 804 806 808 810 812 814 816 817 819 820 822 823 825 826 828 829 831 832 833 835 836 837 839 840 841 842 842 844 845 845 846 847 848 849 850 850 851 853 853 854 854 855 855 856 858 859 858 859 858 858 858 858 859 859 856 856 859 859 860 862 863 864 864 865 867 868 868 869 870 870
754 758 762 765 768 771 775 779 782 786 789 793 795 798 800 802 803 805 807 810 812 814 815 816 817 819 820 822 824 825 827 828 830 831 832 833 835 836 837 839 839 841 842 843 844 845 845 846 847 848 849 850 851 852 853 854 854 855 856 857 858 858 858 858 857 857 856 857 858 856 854 855 856 858 861 862 863 864 865 866 867 867 868 869 869